This is the latest recevied weather packets stored in our database for station/object N4HAC. If no packets are shown the sender has not sent any weather packets the latest 10 day(s).
| Time | Temp. | Humidity | Pressure | Rain* | Wind** | Luminosity | Snow |
|---|---|---|---|---|---|---|---|
| 1777893134 | 6.11° C | 93% | 1009.8 hPa | 0 mm | - | 82 W/m² | - |
| 1777892830 | 5.56° C | 94% | 1009.9 hPa | 0 mm | - | 53 W/m² | - |
| 1777892527 | 5.56° C | 95% | 1009.7 hPa | 0 mm | - | 39 W/m² | - |
| 1777892222 | 5° C | 95% | 1010 hPa | 0 mm | - | 52 W/m² | - |
| 1777891919 | 5° C | 95% | 1010 hPa | 0 mm | - | 34 W/m² | - |
| 1777891617 | 5° C | 95% | 1009.7 hPa | 0 mm | - | 25 W/m² | - |
| 1777891313 | 5° C | 95% | 1009.6 hPa | 0 mm | - | 19 W/m² | - |
| 1777891008 | 5° C | 95% | 1009.6 hPa | 0 mm | - | 12 W/m² | - |
| 1777890707 | 4.44° C | 95% | 1009.7 hPa | 0 mm | - | 10 W/m² | - |
| 1777890404 | 4.44° C | 95% | 1009.8 hPa | 0 mm | - | 8 W/m² | - |
| 1777890099 | 4.44° C | 94% | 1009.7 hPa | 0 mm | - | 6 W/m² | - |
| 1777889797 | 5° C | 94% | 1009.8 hPa | 0 mm | - | 4 W/m² | - |
| 1777889495 | 5° C | 94% | 1009.7 hPa | 0 mm | - | 2 W/m² | - |
| 1777889192 | 5° C | 94% | 1009.5 hPa | 0 mm | - | 1 W/m² | - |
| 1777888891 | 5° C | 93% | 1009.8 hPa | 0 mm | - | 1 W/m² | - |
| 1777888586 | 5° C | 93% | 1009.6 hPa | 0 mm | - | 0 W/m² | - |
| 1777888282 | 5° C | 93% | 1009.6 hPa | 0 mm | - | 0 W/m² | - |
| 1777887979 | 5° C | 93% | 1009.8 hPa | 0 mm | - | 0 W/m² | - |
| 1777887676 | 5° C | 93% | 1009.6 hPa | 0 mm | - | 0 W/m² | - |
| 1777887373 | 5° C | 92% | 1009.7 hPa | 0 mm | - | 0 W/m² | - |
| 1777887068 | 5° C | 92% | 1009.6 hPa | 0 mm | - | 0 W/m² | - |
| 1777886765 | 5° C | 91% | 1009.7 hPa | 0 mm | - | 0 W/m² | - |
| 1777886461 | 5.56° C | 91% | 1009.8 hPa | 0 mm | - | 0 W/m² | - |
| 1777886159 | 5.56° C | 91% | 1009.6 hPa | 0 mm | - | 0 W/m² | - |
| 1777885856 | 5.56° C | 90% | 1009.6 hPa | 0 mm | - | 0 W/m² | - |
* Rain latest hour (hover to see other rain measurements)
** Current wind speed in m/s (hover to see current wind gust speed)